New Castle, DE

5:55 PM EST on February 13, 2016 (GMT -0500)
New Castle County

Weather History for KILG - February, 2014

Change the Weather History Date:

Saturday, February 1, 2014

  Actual Average Record
Temperature  
Mean Temperature 37 °F 33 °F  
Max Temperature 46 °F 41 °F 71 °F (2002)
Min Temperature 27 °F 25 °F -1 °F (1935)
Degree Days  
Heating Degree Days 28 32  
Month to date heating degree days 28 32  
Since 1 July heating degree days 2949 2819  
Cooling Degree Days 0 0  
Month to date cooling degree days 0 0  
Year to date cooling degree days 0 0  
Moisture  
Dew Point 26 °F    
Average Humidity 63    
Maximum Humidity 85    
Minimum Humidity 40    
Precipitation  
Precipitation 0.00 in 0.10 in 1.71 in (1915)
Month to date precipitation 0.00 0.10  
Year to date precipitation 3.23 3.11  
Snow  
Snow 0.00 in 0.30 in 4.20 in (1958)
Month to date snowfall 0.0 0.3  
Since 1 July snowfall 29.4 10.0  
Snow Depth 3.00 in    
Sea Level Pressure  
Sea Level Pressure 30.22 in    
Wind  
Wind Speed 3 mph (SSE)    
Max Wind Speed 13 mph    
Max Gust Speed 16 mph    
Visibility 9 miles    
Events      
T = Trace of Precipitation, MM = Missing Value Source: NWS Daily Summary

Daily Weather History Graph

Daily Weather History Graph

Search for Another Location

Airport or City:

Trip Planner

Search our weather history database for the weather conditions in past years. The results will help you decide how hot, cold, wet, or windy it might be!

Date:

Astronomy

Feb. 01, 2014 Rise Set
Actual Time 7:10 AM EST 5:22 PM EST
Civil Twilight 6:41 AM EST 5:50 PM EST
Nautical Twilight 6:09 AM EST 6:23 PM EST
Astronomical Twilight 5:37 AM EST 6:54 PM EST
Moon 7:58 AM EST (2/1) 7:54 PM EST (2/1)
Length of Visible Light 11h 08m
Length of Day
10h 12m
Waxing Crescent, 5% of the Moon is Illuminated
Feb 1
Waxing Crescent
Feb 6
First Quarter
Feb 14
Full
Feb 22
Last Quarter
Mar 1
New

Hourly Weather History & Observations

Time (EST) Temp. Windchill Dew Point Humidity Pressure Visibility Wind Dir Wind Speed Gust Speed Precip Events Conditions
12:51 AM 30.9 °F - 24.1 °F 76% 30.25 in 7.0 mi Calm Calm - N/A   Clear
1:51 AM 30.9 °F - 24.1 °F 76% 30.26 in 8.0 mi Calm Calm - N/A   Clear
2:51 AM 30.0 °F - 23.0 °F 75% 30.27 in 8.0 mi Calm Calm - N/A   Clear
3:51 AM 30.0 °F - 25.0 °F 82% 30.27 in 8.0 mi Calm Calm - N/A   Clear
4:51 AM 30.9 °F - 24.1 °F 76% 30.28 in 8.0 mi Calm Calm - N/A   Clear
5:51 AM 28.9 °F - 24.1 °F 82% 30.30 in 8.0 mi Calm Calm - N/A   Clear
6:51 AM 30.0 °F - 24.1 °F 79% 30.33 in 8.0 mi Calm Calm - N/A   Clear
7:51 AM 28.0 °F 22.8 °F 24.1 °F 85% 30.33 in 5.0 mi SSE 4.6 mph - N/A   Clear
8:51 AM 35.1 °F - 27.0 °F 72% 30.33 in 5.0 mi Calm Calm - N/A   Haze
9:51 AM 39.0 °F - 21.9 °F 50% 30.32 in 10.0 mi Calm Calm - N/A   Clear
10:51 AM 41.0 °F 38.0 °F 21.0 °F 45% 30.32 in 10.0 mi ESE 4.6 mph - N/A   Clear
11:51 AM 44.1 °F 41.5 °F 21.0 °F 40% 30.30 in 10.0 mi SSE 4.6 mph - N/A   Clear
12:51 PM 44.1 °F 40.1 °F 21.9 °F 42% 30.27 in 10.0 mi South 6.9 mph - N/A   Clear
1:51 PM 44.1 °F 38.6 °F 25.0 °F 47% 30.22 in 10.0 mi SSE 10.4 mph - N/A   Clear
2:51 PM 45.0 °F 39.7 °F 25.0 °F 46% 30.19 in 10.0 mi SSE 10.4 mph - N/A   Clear
3:51 PM 45.0 °F 39.3 °F 28.0 °F 52% 30.17 in 10.0 mi SSE 11.5 mph - N/A   Clear
4:51 PM 43.0 °F 38.2 °F 30.9 °F 62% 30.18 in 10.0 mi SSE 8.1 mph - N/A   Clear
5:51 PM 39.9 °F 35.8 °F 32.0 °F 73% 30.17 in 10.0 mi SSE 5.8 mph - N/A   Clear
6:51 PM 37.9 °F 35.5 °F 30.9 °F 76% 30.16 in 10.0 mi SSE 3.5 mph - N/A   Clear
7:51 PM 37.0 °F - 30.9 °F 79% 30.13 in 10.0 mi Calm Calm - N/A   Clear
8:51 PM 32.0 °F - 28.9 °F 88% 30.10 in 10.0 mi Calm Calm - N/A   Clear
9:51 PM 36.0 °F 33.3 °F 30.9 °F 82% 30.09 in 10.0 mi South 3.5 mph - N/A   Clear
10:51 PM 32.0 °F - 28.9 °F 88% 30.06 in 7.0 mi Calm Calm - N/A   Clear
11:51 PM 32.0 °F - 30.0 °F 92% 30.03 in 7.0 mi Calm Calm - N/A   Partly Cloudy